Weather Roundup
Issued by NWS Chicago, IL

Home | Current Version | Previous Version | Graphics & Text | Print | Product List | Glossary On
Versions: 1 2 3 4 5 6 7 8 9 10 11 12 13 14 15 16 17 18 19 20 21 22 23 24 25 26 27 28 29 30 31 32 33 34 35 36 37 38 39 40 41 42 43 44 45 46 47 48 49 50
000
NZUS59 KLOT 272108
HRRLOT

CHICAGO AREA WEATHER ROUNDUP
NATIONAL WEATHER SERVICE CHICAGO/ROMEOVILLE IL
400 PM CDT WED MAY 27 2015

NOTE: "FAIR" INDICATES FEW OR NO CLOUDS BELOW 12,000 FEET WITH NO
SIGNIFICANT WEATHER AND/OR OBSTRUCTIONS TO VISIBILITY.

* THESE STATIONS ARE NOT UNDER NWS QUALITY CONTROL. THEY ALSO MAY NOT
  REPORT WEATHER SUCH AS PRECIPITATION OR FOG.

ILZ005-006-012>014-019>023-272200-
NORTHEAST ILLINOIS

CITY           SKY/WX    TMP DP  RH WIND       PRES   REMARKS
OHARE          PTSUNNY   71  57  61 NW12      30.02R
MIDWAY         PTSUNNY   73  55  53 NW14G22   30.02R
AURORA         MOSUNNY   74  58  57 NW14G22   30.03R
LANSING*       CLOUDY    75  53  46 W14       30.01R
JOLIET*        CLOUDY    76  59  54 NW7G16    30.03R
WAUKEGAN       CLOUDY    69  58  67 VRB7      30.01R
DUPAGE AIRPORT MOSUNNY   72  56  57 NW15      30.02S
WHEELING       PTSUNNY   69  59  70 W8        30.03S
KANKAKEE*      PTSUNNY   78  59  53 W20       30.03R
MORRIS*        PTSUNNY   76  58  54 NW13G20   30.02R
LEWIS AIRPORT* MOSUNNY   73  57  57 N17G26    30.03R
NORTHERLY IS     N/A     70  53  54 NW12        N/A
$$

WIZ051-052-058>065-066-070>072-272200-
SOUTHEAST WISCONSIN

CITY           SKY/WX    TMP DP  RH WIND       PRES   REMARKS
MILWAUKEE      MOSUNNY   69  57  65 NE10      30.00R
KENOSHA*       PTSUNNY   73  60  63 NW13      30.01R
RACINE*        SUNNY     69  56  62 NE12      30.02R
BURLINGTON     MOSUNNY   69  53  55 N5        30.02S
WAUKESHA       MOSUNNY   70  54  56 NW8       30.02R
WEST BEND      MOSUNNY   72  52  49 W9        30.00R
$$

INZ001>003-010>013-019-020-272200-
NORTHWEST INDIANA

CITY           SKY/WX    TMP DP  RH WIND       PRES   REMARKS
GARY*          PTSUNNY   75  55  50 W14G29    30.01R
MICHIGAN CITY* NOT AVBL
RENSSELAER*    NOT AVBL
VALPARAISO     SUNNY     78  57  48 W17G25    30.01R
$$

LMZ740>746-272200-
SOUTHERN LAKE MICHIGAN

STATION/POSITION TIME  SKY/WX   TEMP WIND        PRES    VSBY
                                AIR  DIR/SP/G
                 (UTC)          (F)  (DEG/KT/KT) (MB)    (MI)
HARRISON CRIB    2000            70  280/ 14/ 17   N/A
BURNHAM HARBOR   2100            70  280/ 11/ 15   N/A
CALUMET HARBOR   NOT AVBL
BURNS HARBOR     2000            63  290/ 10/ 12 1016.3S
MICHIGAN CITY    2000            63  260/ 12/ 16   N/A
$$

ABBREVIATIONS USED IN REMARKS
   TC - TEMPERATURE IN CELSIUS
  WCI - WIND CHILL INDEX
   HX - HEAT INDEX
  VSB - VISIBILITY
$$



USA.gov is the U.S. government's official web portal to all federal, state and local government web resources and services.